Find Starlink 32486

NORAD ID: 61854 Int'l Des: 2024-202 Owner: SPXS Country: US Constellation: starlink operational
LEOCIRCULAR

Live Position

Loading 3D Globe...

About Starlink 32486

Description loading...

Upcoming Passes

Passes for default location (London). Set your location on the main map for personalized predictions.

Altitude History

Loading altitude history...

Two-Line Element Set

1 61854U 24202K 26126.44818898 .00011604 00000-0 43151-3 0 9990
2 61854 43.0027 271.5754 0001689 226.1567 133.9145 15.27506495 84176
Epoch: May 6, 2026 • Age: 13 hours

Current Status

Altitude 481.8 km
Velocity 7.63 km/s
Sub-Earth Point 6.89°N, 144.58°W
Launch Date Nov 7, 2024
Age 1.4 years
Type internet

Technical Details

Classification Payload
Mass 730.00 kg
Dry Mass 700.00 kg
Total Mass 730.00 kg
Length 0.30 m
Diameter 4.10 m
Span 29.00 m
Shape Box + pan
Manufacturer SPXS
Bus Type Starlink V2M
Phase Status In Orbit
Owner/State SPXS/US

Most Searched